Theta_e
325 328 331 332 333 334 334 338 339 341 342 342 344 344 345 346 347 346 346 345 346 346 347 348 352 351 350 347 344 342 339 336 334
321 322 328 330 333 334 335 335 339 342 342 343 344 345 345 346 347 347 346 346 346 346 348 349 350 351 350 348 344 341 338 336 335
320 322 323 328 331 333 334 336 338 341 343 342 344 346 347 347 347 349 348 347 345 346 347 350 349 350 350 348 343 341 338 336 336
319 320 322 325 329 332 333 335 336 339 342 342 343 347 347 347 348 348 349 346 347 347 348 348 347 349 349 347 343 340 339 337 336
319 321 323 324 328 330 332 333 335 337 340 341 343 347 348 348 348 348 348 347 347 348 346 347 347 348 348 346 344 341 339 337 337
313 319 322 324 324 327 330 331 334 335 339 341 343 344 347 347 347 347 347 347 348 348 347 346 346 347 346 344 343 340 341 340 338
314 317 319 321 323 325 329 331 333 335 338 341 342 343 345 345 347 347 348 349 349 348 349 345 345 345 346 345 344 342 340 340 339
310 314 317 320 322 324 326 330 333 335 338 341 343 343 343 344 346 348 348 349 350 350 350 348 345 345 345 345 344 342 341 339 338
306 308 312 317 324 326 325 329 332 335 338 341 343 343 343 346 347 347 347 348 348 349 350 350 347 345 344 344 344 335 333 339 338
305 307 311 316 320 325 327 328 332 334 338 343 343 343 344 346 347 347 348 349 348 347 347 349 347 346 345 344 345 329 330 335 341
306 307 309 315 319 323 329 330 331 335 338 342 344 344 344 347 347 347 349 349 349 348 348 347 348 347 346 345 345 326 326 333 342
308 310 312 314 320 324 327 329 332 334 337 341 344 344 345 347 349 348 349 349 349 350 349 348 348 348 346 345 346 324 324 329 340
310 313 314 316 320 325 325 329 332 334 335 339 342 346 347 349 349 348 348 349 350 352 351 350 350 349 349 341 346 324 320 328 340
316 316 320 321 323 326 327 331 334 334 335 337 342 347 349 349 350 350 349 350 350 350 351 351 350 349 349 347 345 341 318 320 341
326 332 338 333 327 326 319 330 334 334 334 340 344 347 348 349 351 351 351 351 351 351 351 351 350 349 348 347 348 329 317 317 328
336 338 339 340 341 342 343 333 333 332 332 340 341 342 345 348 350 352 353 351 350 349 351 350 349 348 347 347 348 333 315 315 319
332 333 337 340 339 336 335 336 335 336 340 344 338 338 340 344 347 348 352 352 351 350 349 348 348 348 346 346 336 331 323 325 327
329 330 329 330 328 324 322 323 322 323 325 336 338 335 336 339 342 343 348 339 342 350 352 346 349 349 348 341 331 327 321 321 329
326 324 324 328 331 332 328 324 322 321 326 326 332 339 340 337 339 335 329 330 324 307 313 310 312 315 327 330 317 309 308 310 304
324 329 329 329 329 330 332 332 330 331 328 331 331 332 333 332 330 332 332 333 330 324 313 307 307 307 312 315 317 308 306 301 301
Wind_Speed
23 21 22 23 24 21 20 22 21 20 20 20 19 19 19 17 16 11 11 10 8 8 7 7 8 9 9 9 8 6 6 5 5
16 20 22 24 23 23 22 20 22 22 21 20 19 20 17 17 15 15 13 12 11 8 8 7 8 10 11 10 9 8 8 6 6
18 18 20 22 21 22 21 22 22 21 21 22 20 21 19 17 18 17 14 11 12 12 9 9 9 10 10 10 9 9 9 6 5
18 16 19 20 21 21 23 20 18 21 21 20 20 18 18 18 16 16 14 12 13 12 10 11 10 11 11 11 10 9 9 7 7
11 14 17 19 22 20 18 20 19 20 20 21 21 20 19 19 17 16 16 15 14 12 12 11 12 11 11 11 12 11 12 11 9
8 10 10 10 10 16 19 20 20 19 20 22 19 19 19 19 19 18 18 16 15 13 13 12 11 12 13 13 13 12 12 12 11
10 9 11 9 10 16 17 18 21 20 20 20 19 19 19 20 20 20 19 17 16 15 15 14 14 14 14 14 14 13 13 12 11
7 10 8 9 10 13 15 16 18 17 17 18 19 19 19 22 19 18 17 17 16 15 16 16 16 15 14 14 14 12 14 13 13
10 11 11 9 11 11 13 17 18 18 19 20 20 20 22 18 17 18 18 16 16 15 16 14 14 15 15 15 12 16 18 17 13
14 14 12 11 12 16 17 18 18 19 19 17 20 21 19 19 18 19 18 16 16 17 17 15 15 15 14 16 15 16 20 21 12
15 12 11 12 12 11 14 16 16 17 15 19 20 21 19 17 19 20 17 17 18 18 17 18 15 16 16 14 12 16 20 23 14
15 13 10 10 10 11 8 10 11 12 12 14 16 17 17 19 20 19 19 20 21 17 16 16 17 14 16 17 14 20 22 18 14
12 11 7 8 8 5 8 9 11 12 14 16 18 19 21 20 20 20 20 21 19 17 14 15 12 14 15 18 17 19 21 22 11
5 4 2 3 3 3 4 2 8 13 13 17 21 17 15 16 17 19 20 15 14 15 14 12 13 14 12 16 17 15 22 24 12
5 6 7 7 9 7 5 5 6 7 11 8 4 7 10 13 16 15 14 16 13 11 11 11 12 11 11 11 14 14 21 28 22
6 7 6 6 9 9 9 7 5 3 4 2 5 6 8 11 11 12 11 13 13 13 13 12 12 12 11 10 8 9 17 20 15
7 6 7 7 11 11 11 9 11 7 4 2 2 6 6 5 7 8 10 9 11 11 13 15 16 16 13 9 8 8 7 9 10
6 6 6 6 10 9 7 6 7 7 8 5 5 1 4 6 6 10 9 3 4 10 9 9 8 7 7 6 4 5 7 4 11
8 8 7 9 9 9 6 5 5 4 4 5 5 4 2 4 5 6 6 6 6 14 12 17 16 15 13 9 15 14 12 16 9
11 12 11 11 10 9 8 8 6 4 3 3 4 4 3 2 5 8 10 9 10 10 7 18 24 17 14 15 22 24 24 25 18
Wind_Direction
211 213 212 211 209 202 199 198 194 193 194 201 198 195 200 201 201 201 206 196 193 201 194 197 184 191 189 193 188 180 173 182 179
217 213 213 215 212 206 205 199 197 193 195 199 197 199 199 200 200 204 202 197 194 198 192 189 183 187 193 195 186 180 174 189 184
225 216 214 215 211 210 208 204 199 196 197 196 195 196 196 197 198 200 200 194 199 198 189 187 179 185 193 193 187 184 177 186 179
217 214 216 215 211 208 206 204 195 197 197 194 197 195 197 198 200 200 198 195 200 200 187 186 186 184 191 192 189 183 185 189 187
218 216 213 209 208 203 199 200 196 195 195 196 198 192 194 198 196 194 196 197 197 193 191 188 190 185 191 192 193 186 190 195 194
242 235 232 214 198 198 196 194 197 194 196 200 196 191 194 196 196 195 200 198 194 191 189 189 190 188 192 193 192 187 196 195 191
226 222 238 207 192 199 197 194 194 192 197 198 194 194 195 197 197 196 199 197 194 189 192 185 192 197 196 195 192 193 194 193 194
243 246 231 216 197 196 194 191 193 194 195 190 190 194 198 203 197 200 198 196 196 190 191 194 194 194 201 196 195 195 190 193 195
233 243 241 220 209 202 190 192 192 191 189 190 186 193 203 199 196 197 198 196 195 193 196 196 191 199 201 199 205 197 185 188 196
234 236 233 230 211 201 199 196 190 192 193 183 191 198 195 196 195 199 198 192 191 195 195 191 198 201 202 208 209 186 185 190 194
228 233 236 227 231 216 210 202 195 197 184 190 192 194 197 192 192 199 195 192 198 198 194 193 194 199 200 202 209 183 188 194 197
225 228 224 225 223 220 192 182 183 174 177 188 194 199 200 193 194 197 194 197 201 199 195 199 200 193 195 200 203 185 193 184 197
224 229 228 229 218 189 178 199 160 165 181 187 196 198 199 196 195 195 199 200 199 198 198 202 195 199 197 197 204 192 186 185 189
210 200 185 9 61 54 8 120 169 187 189 198 204 200 198 197 196 199 203 200 198 195 199 192 194 195 195 204 206 196 187 186 186
85 87 61 68 83 62 37 89 146 172 200 217 171 186 203 209 205 200 196 196 186 191 182 195 198 198 202 205 210 206 189 181 187
59 67 66 64 77 70 52 54 75 132 25 73 163 186 202 207 203 203 206 196 188 165 177 192 214 201 201 210 206 179 174 182 192
80 69 81 87 85 68 57 48 54 56 33 67 171 215 203 187 195 201 199 199 193 216 218 194 193 198 208 191 168 173 167 171 152
83 89 90 95 95 87 73 57 53 37 31 41 67 127 197 188 185 184 191 120 214 211 210 206 211 197 170 191 137 102 145 197 178
71 58 55 66 79 93 104 103 95 93 61 61 68 73 115 176 152 128 132 132 81 29 133 119 119 116 128 110 119 120 89 102 32
67 62 56 54 51 44 46 63 58 44 56 49 90 118 118 120 144 155 154 148 134 116 32 110 123 128 156 161 152 157 163 158 155